CW1663 Weather Reports


Display with metric or nautical units.
time (UTC)temp
F
wind
direction
speed
MPH
gust
MPH
rain 1hr
in
rain 24hr
in
rain mn
in
humidity
%
barometer
mb
20260906230814 64 167 0.0 0.0 0.00 0.00 0.00 79 1016.9
20260906230304 65 167 0.0 0.0 0.00 0.00 0.00 78 1017.0
20260906225804 65 167 0.0 1.0 0.00 0.00 0.00 78 1017.0
20260906224304 65 167 0.0 1.0 0.00 0.00 0.00 77 1017.3
20260906221803 65 178 0.0 0.0 0.00 0.00 0.00 77 1017.5
20260906221304 65 177 0.0 0.0 0.00 0.00 0.00 76 1017.5
20260906220303 65 177 0.0 3.0 0.00 0.00 0.00 76 1017.6
20260906215804 66 235 1.0 3.0 0.00 0.00 0.00 76 1017.6
20260906214803 66 179 1.0 3.0 0.00 0.00 0.00 76 1017.5
20260906213803 66 176 3.0 9.0 0.00 0.00 0.00 76 1017.4
20260906213313 66 166 2.0 3.0 0.00 0.00 0.00 76 1017.5
20260906210805 65 171 2.0 7.0 0.00 0.00 0.00 76 1017.5
20260906205805 65 191 2.0 7.0 0.00 0.00 0.00 76 1017.4
20260906204805 65 175 3.0 8.0 0.00 0.00 0.00 76 1017.5
20260906203305 65 162 3.0 8.0 0.00 0.00 0.00 76 1017.8
20260906202306 65 209 3.0 6.0 0.00 0.00 0.00 75 1018.0
20260906201805 65 159 3.0 6.0 0.00 0.00 0.00 75 1018.0
20260906201305 65 186 2.0 6.0 0.00 0.00 0.00 74 1018.1
20260906200805 66 194 2.0 6.0 0.00 0.00 0.00 74 1018.1
20260906200304 66 180 2.0 3.0 0.00 0.00 0.00 73 1018.2
20260906195805 66 180 2.0 6.0 0.00 0.00 0.00 73 1018.2
20260906194805 66 197 3.0 8.0 0.00 0.00 0.00 73 1018.0
20260906193305 66 163 2.0 7.0 0.00 0.00 0.00 74 1017.9
20260906191305 66 225 2.0 5.0 0.00 0.00 0.00 74 1018.0
20260906190304 66 186 2.0 8.0 0.00 0.00 0.00 74 1018.0
20260906184805 67 163 2.0 9.0 0.00 0.00 0.00 74 1017.9
20260906184305 67 160 3.0 12.0 0.00 0.00 0.00 74 1018.0
20260906183805 67 157 3.0 7.0 0.00 0.00 0.00 74 1018.0
20260906182306 67 169 3.0 7.0 0.00 0.00 0.00 74 1018.2
20260906180305 67 168 3.0 6.0 0.00 0.00 0.00 75 1018.4
20260906175306 67 188 3.0 7.0 0.00 0.00 0.00 76 1018.6
20260906173805 67 174 2.0 5.0 0.00 0.00 0.00 76 1018.7
20260906172805 67 161 3.0 6.0 0.00 0.00 0.00 76 1019.0
20260906171305 67 187 3.0 6.0 0.00 0.00 0.00 77 1019.2
20260906170305 67 148 2.0 7.0 0.00 0.00 0.00 77 1019.2
20260906165306 67 182 3.0 6.0 0.00 0.00 0.00 76 1019.3
20260906163305 67 156 1.0 3.0 0.00 0.00 0.00 76 1019.7
20260906162306 67 150 1.0 3.0 0.00 0.00 0.00 75 1019.7
20260906161805 67 203 1.0 3.0 0.00 0.00 0.00 75 1019.7
20260906161305 67 153 1.0 3.0 0.00 0.00 0.00 75 1019.9
20260906160805 67 224 2.0 5.0 0.00 0.00 0.00 75 1019.9
20260906154805 68 169 4.0 9.0 0.00 0.00 0.00 71 1019.8
20260906153805 68 238 2.0 6.0 0.00 0.00 0.00 70 1019.8
20260906151804 69 169 3.0 7.0 0.00 0.00 0.00 69 1020.0
20260906150805 70 146 5.0 9.0 0.00 0.00 0.00 68 1019.9
20260906145306 71 136 6.0 10.0 0.00 0.00 0.00 67 1020.1
20260906143804 72 169 4.0 9.0 0.00 0.00 0.00 65 1019.9
20260906142306 73 173 5.0 12.0 0.00 0.00 0.00 64 1020.5
20260906141805 73 139 3.0 8.0 0.00 0.00 0.00 65 1020.5
20260906141305 73 148 3.0 9.0 0.00 0.00 0.00 63 1020.5
20260906140805 73 188 4.0 8.0 0.00 0.00 0.00 59 1020.5
20260906135805 72 202 3.0 10.0 0.00 0.00 0.00 60 1020.7
20260906135306 72 159 5.0 17.0 0.00 0.00 0.00 63 1020.6
20260906133805 73 159 5.0 12.0 0.00 0.00 0.00 65 1020.6
20260906131304 73 175 3.0 9.0 0.00 0.00 0.00 58 1021.1
20260906125306 73 183 5.0 9.0 0.00 0.00 0.00 57 1021.1
20260906124805 74 189 2.0 10.0 0.00 0.00 0.00 58 1021.1
20260906124305 74 175 3.0 8.0 0.00 0.00 0.00 57 1021.1
20260906123805 74 176 3.0 10.0 0.00 0.00 0.00 57 1021.1
20260906123305 74 185 3.0 10.0 0.00 0.00 0.00 57 1021.3
20260906120305 74 201 6.0 12.0 0.00 0.00 0.00 57 1021.5
20260906114804 74 211 7.0 15.0 0.00 0.00 0.00 57 1021.7
20260906114305 74 185 4.0 10.0 0.00 0.00 0.00 58 1021.7
20260906113306 73 188 5.0 13.0 0.00 0.00 0.00 59 1021.7
20260906112805 73 191 6.0 14.0 0.00 0.00 0.00 60 1021.7
20260906111304 73 144 5.0 12.0 0.00 0.00 0.00 62 1021.8
20260906110304 73 208 5.0 12.0 0.00 0.00 0.00 62 1021.8
20260906105306 72 152 2.0 12.0 0.00 0.00 0.00 64 1021.8
20260906103805 72 197 3.0 12.0 0.00 0.00 0.00 65 1021.9
20260906103304 71 168 4.0 8.0 0.00 0.00 0.00 66 1022.0
20260906102306 71 214 3.0 14.0 0.00 0.00 0.00 68 1022.0
20260906101804 70 199 3.0 12.0 0.00 0.00 0.00 69 1022.0
20260906101304 70 230 5.0 12.0 0.00 0.00 0.00 69 1022.1
20260906100804 70 183 6.0 13.0 0.00 0.00 0.00 69 1022.1
20260906095805 69 142 7.0 14.0 0.00 0.00 0.00 69 1022.1
20260906094305 69 198 6.0 13.0 0.00 0.00 0.00 72 1022.3
20260906092804 68 144 6.0 13.0 0.00 0.00 0.00 73 1022.4
20260906090804 68 167 3.0 13.0 0.00 0.00 0.00 78 1022.6
20260906083804 66 189 5.0 9.0 0.00 0.00 0.00 79 1022.8
20260906083305 66 167 8.0 15.0 0.00 0.00 0.00 78 1022.8
20260906082805 66 193 3.0 10.0 0.00 0.00 0.00 80 1022.8
20260906082306 65 180 2.0 7.0 0.00 0.00 0.00 81 1022.8
20260906081804 65 170 5.0 12.0 0.00 0.00 0.00 81 1022.8
20260906074305 63 161 5.0 8.0 0.00 0.00 0.00 86 1022.9
20260906073804 62 144 3.0 8.0 0.00 0.00 0.00 87 1022.9
20260906073304 62 169 2.0 7.0 0.00 0.00 0.00 88 1023.0
20260906072804 61 153 3.0 6.0 0.00 0.00 0.00 88 1023.0
20260906071805 61 168 2.0 7.0 0.00 0.00 0.00 89 1023.0
20260906070805 60 161 2.0 5.0 0.00 0.00 0.00 90 1023.1
20260906064305 58 148 3.0 5.0 0.00 0.00 0.00 91 1023.3
20260906063805 58 147 2.0 3.0 0.00 0.00 0.00 91 1023.3
20260906062804 57 155 1.0 3.0 0.00 0.00 0.00 91 1023.4
20260906060305 57 159 0.0 0.0 0.00 0.00 0.00 90 1023.4
20260906055306 57 159 0.0 0.0 0.00 0.00 0.00 90 1023.3
20260906054805 57 159 0.0 0.0 0.00 0.00 0.00 90 1023.3
20260906053805 57 176 0.0 0.0 0.00 0.00 0.00 90 1023.4
20260906053304 56 153 0.0 2.0 0.00 0.00 0.00 90 1023.5
20260906050805 56 171 0.0 0.0 0.00 0.00 0.00 90 1023.5
20260906044805 56 166 0.0 0.0 0.00 0.00 0.00 90 1023.4
20260906044304 56 186 0.0 3.0 0.00 0.00 0.00 89 1023.5
20260906041804 56 157 1.0 3.0 0.00 0.00 0.00 88 1023.7
20260906041305 56 195 0.0 3.0 0.00 0.00 0.00 88 1023.7
20260906040804 56 170 1.0 2.0 0.00 0.00 0.00 88 1023.7
20260906040305 56 152 1.0 2.0 0.00 0.00 0.00 87 1023.9
20260906035306 56 211 0.0 0.0 0.00 0.00 0.00 87 1023.9
20260906033305 56 252 0.0 0.0 0.00 0.00 0.00 87 1023.7
20260906032804 56 252 0.0 0.0 0.00 0.00 0.00 87 1023.7
20260906031805 56 5 0.0 0.0 0.00 0.00 0.00 87 1023.7
20260906031305 56 0 0.0 0.0 0.00 0.00 0.00 87 1023.7
20260906030304 56 355 0.0 0.0 0.00 0.00 0.00 87 1024.0
20260906024805 56 275 0.0 0.0 0.00 0.00 0.00 87 1024.2
20260906024304 56 275 0.0 0.0 0.00 0.00 0.00 86 1024.5
20260906023804 56 275 0.0 0.0 0.00 0.00 0.00 86 1024.5
20260906023304 56 275 0.0 0.0 0.00 0.00 0.00 86 1024.7
20260906022307 56 281 0.0 0.0 0.00 0.00 0.00 86 1024.8
20260906021805 56 270 0.0 0.0 0.00 0.00 0.00 86 1024.8
20260906020804 56 261 0.0 0.0 0.00 0.00 0.00 86 1024.8
20260906020305 56 275 0.0 0.0 0.00 0.00 0.00 86 1024.7
20260906014804 56 279 0.0 0.0 0.00 0.00 0.00 85 1024.8
20260906014304 56 279 0.0 0.0 0.00 0.00 0.00 85 1024.9
20260906013805 56 277 0.0 0.0 0.00 0.00 0.00 85 1024.9
20260906012804 57 233 0.0 0.0 0.00 0.00 0.00 85 1024.9
20260906010305 57 295 1.0 3.0 0.00 0.00 0.00 85 1025.1
20260906005804 57 305 0.0 0.0 0.00 0.00 0.00 85 1025.1
20260906003805 57 280 0.0 0.0 0.00 0.00 0.00 84 1025.1
20260906002306 57 214 0.0 0.0 0.00 0.00 0.00 84 1025.2
20260906001804 57 207 0.0 1.0 0.00 0.00 0.00 83 1025.2
20260906000805 57 254 0.0 0.0 0.00 0.00 0.00 83 1025.3
20260906000304 57 255 0.0 0.0 0.00 0.00 0.00 83 1025.4
20260905234805 58 265 0.0 2.0 0.00 0.01 0.00 83 1025.4
20260905233805 58 233 1.0 3.0 0.00 0.01 0.00 82 1025.4
20260905233305 58 239 0.0 2.0 0.00 0.01 0.00 82 1025.1
20260905232805 58 224 0.0 0.0 0.00 0.01 0.00 82 1025.1
20260905232306 58 224 0.0 0.0 0.00 0.01 0.00 82 1025.1